Location: Gugi
(45.4667°N, 11.1000°E)
Time: 17:38:59
(UTC+00:00)

Cosmos 2263 Rocket - Pass Details

Date: 25 February 2020
Orbit: 822 x 850 km, 71.0° (Epoch: 05 April)

Event Time Altitude Azimuth Distance (km) Brightness Sun altitude
Rises 19:27:00 0° 343° (NNW) 3,413 5.8 -27.0°
Reaches altitude 10° 19:31:42 10° 18° (NNE) 2,480 4.6 -27.8°
Enters shadow 19:32:02 10° 22° (NNE) 2,452 4.5 -27.9°
